(336192) = 2008 RS137

Discovered at Kitt Peak on 2008-09-05 by Spacewatch.

Orbit

Orbit type: Main Belt

Note: WebGL enabled browser required.

epoch2024-03-31.0
epoch JD2460400.5
perihelion date2023-03-22.26545
perihelion JD2460025.76545
argument of perihelion (°)182.77400
ascending node (°)251.31373
inclination (°)4.23186
eccentricity0.0467435
perihelion distance (AU)2.6247385
Tisserand w.r.t. Jupiter3.3
ΔV w.r.t. Earth (km/sec)10.2
semimajor axis (AU)2.7534442
mean anomaly (°)80.83755
mean daily motion (°/day)0.21571950
aphelion distance (AU)2.882
period (years)4.57
P-vector [x]0.27429020
P-vector [y]0.88370834
P-vector [z]0.37924195
Q-vector [x]-0.95910295
Q-vector [y]0.28005984
Q-vector [z]0.04108546
absolute magnitude16.59
phase slope0.15
uncertainty0
referenceMPEC 2024-E23
observations used317
oppositions16
arc length (days)8909
first opposition used1999
last opposition used2024
residual rms (arc-secs)0.67
perturbers coarse indicatorM-v
perturbers precise indicator003Ek
first observation date used1999-10-11.0
last observation date used2024-03-02.0
computer nameMPCLINUX
JD of orbit computation2456700.321196
perihelion JD uncertainty (days)3.4975E-04
argument of perihelion uncertainty (°)1.0497E-04
ascending node uncertainty (°)6.7406E-05
inclination uncertainty (°)6.0806E-06
eccentricity uncertainty 5.5283E-08
perihelion distance uncertainty (AU)1.5505E-07
Minimum Orbit Intersection Distances (in AU)
for orbit epoch: 2460400.5, reference: E2024-G77
Mercury2.31728
Venus1.90396
Earth1.63988
Mars1.04157
Jupiter2.25892
Saturn6.41204
Uranus15.689
Neptune27.1691

Observations

319 total observations over interval: 1999 10 11.31603 – 2024 03 02.459520
These data are available for download (format description).

Date (UT) J2000 RA J2000 Dec Magn Location Ref
1999 10 11.31603 01 33 37.07 +15 09 33.7 19.8 V 691 – Steward Observatory, Kitt Peak-Spacewatch MPS 313454
1999 10 11.33805 01 33 35.94 +15 09 26.5 19.7 V 691 – Steward Observatory, Kitt Peak-Spacewatch MPS 313454
1999 10 11.36895 01 33 34.37 +15 09 16.4 19.4 V 691 – Steward Observatory, Kitt Peak-Spacewatch MPS 313454
2004 12 12.11295 04 42 37.20 +21 50 37.9 20.1 V 691 – Steward Observatory, Kitt Peak-Spacewatch MPS 313454
2004 12 12.13845 04 42 35.76 +21 50 32.9 20.0 V 691 – Steward Observatory, Kitt Peak-Spacewatch MPS 313454
2004 12 12.16458 04 42 34.22 +21 50 27.6 20.3 V 691 – Steward Observatory, Kitt Peak-Spacewatch MPS 313454
2006 03 05.33683 12 03 55.99 -07 12 28.1 20.5 V 691 – Steward Observatory, Kitt Peak-Spacewatch MPS 313454
2006 03 05.35415 12 03 55.19 -07 12 23.9 20.7 V 691 – Steward Observatory, Kitt Peak-Spacewatch MPS 313454
2006 03 05.37146 12 03 54.43 -07 12 19.7 20.8 V 691 – Steward Observatory, Kitt Peak-Spacewatch MPS 313454
2008 09 05.37509 00 46 32.18 +11 24 35.1 20.7 V 691 – Steward Observatory, Kitt Peak-Spacewatch MPS 311888
2008 09 05.39618 00 46 31.49 +11 24 32.1 20.6 V 691 – Steward Observatory, Kitt Peak-Spacewatch MPS 311888
2008 09 05.41381 00 46 30.91 +11 24 29.7 20.5 V 691 – Steward Observatory, Kitt Peak-Spacewatch MPS 311888
2008 09 30.30460 00 28 54.50 +09 37 04.0 20.2   704 – Lincoln Laboratory ETS, New Mexico MPS 311888
2008 09 30.31692 00 28 53.94 +09 36 59.2 20.8   704 – Lincoln Laboratory ETS, New Mexico MPS 311888
2008 09 30.32921 00 28 53.26 +09 36 54.3 20.7   704 – Lincoln Laboratory ETS, New Mexico MPS 311888
2008 10 02.14744 00 27 24.91 +09 26 08.4 19.9 V 691 – Steward Observatory, Kitt Peak-Spacewatch MPS 311888
2008 10 02.16502 00 27 24.04 +09 26 02.0 20.1 V 691 – Steward Observatory, Kitt Peak-Spacewatch MPS 311888
2008 10 02.18260 00 27 23.16 +09 25 55.7 20.2 V 691 – Steward Observatory, Kitt Peak-Spacewatch MPS 311888
2008 10 26.13841 00 10 28.02 +06 59 45.3 20.4 V G96 – Mt. Lemmon Survey MPS 311888
2008 10 26.14357 00 10 27.84 +06 59 43.6 20.3 V G96 – Mt. Lemmon Survey MPS 311888
2008 10 26.14870 00 10 27.69 +06 59 42.0 20.1 V G96 – Mt. Lemmon Survey MPS 311888
2008 10 26.15379 00 10 27.51 +06 59 40.3 20.3 V G96 – Mt. Lemmon Survey MPS 311888
2009 12 19.46671 08 33 45.03 +14 30 46.8 21.2 V 691 – Steward Observatory, Kitt Peak-Spacewatch MPS 311888
2009 12 19.46917 08 33 44.95 +14 30 46.3 21.1 V 691 – Steward Observatory, Kitt Peak-Spacewatch MPS 311888
2009 12 19.48436 08 33 44.54 +14 30 45.8 21.2 V 691 – Steward Observatory, Kitt Peak-Spacewatch MPS 311889
2009 12 19.48683 08 33 44.41 +14 30 45.4 20.3 V 691 – Steward Observatory, Kitt Peak-Spacewatch MPS 311889
2009 12 19.50206 08 33 44.01 +14 30 45.1 20.7 V 691 – Steward Observatory, Kitt Peak-Spacewatch MPS 311889
2009 12 19.50453 08 33 43.98 +14 30 44.6 20.7 V 691 – Steward Observatory, Kitt Peak-Spacewatch MPS 311889
2010 01 12.39076 08 16 49.94 +14 41 33.6 19.8 V G96 – Mt. Lemmon Survey MPS 311889
2010 01 12.39733 08 16 49.54 +14 41 34.0 20.1 V G96 – Mt. Lemmon Survey MPS 311889
2010 01 12.40382 08 16 49.22 +14 41 34.5 19.9 V G96 – Mt. Lemmon Survey MPS 311889
2010 01 12.41041 08 16 48.82 +14 41 35.1 20.2 V G96 – Mt. Lemmon Survey MPS 311889
2010 04 11.933990 07 55 24.39 +16 18 23.4   C51 – WISE MPS 372070
2010 04 12.066293 07 55 30.677 +16 18 16.27   C51 – WISE MPS 904096
2010 04 12.198598 07 55 37.05 +16 18 05.2   C51 – WISE MPS 340796
2010 04 12.33090 07 55 43.35 +16 17 57.5   C51 – WISE MPS 340796
2010 04 12.396991 07 55 46.51 +16 17 51.0   C51 – WISE MPS 340796
2010 04 12.397118 07 55 46.507 +16 17 49.13   C51 – WISE MPS 904096
2010 04 12.463206 07 55 49.69 +16 17 45.8   C51 – WISE MPS 340796
2010 04 12.529422 07 55 52.96 +16 17 39.6   C51 – WISE MPS 340796
2010 04 12.595510 07 55 56.07 +16 17 37.3   C51 – WISE MPS 340796
2010 04 12.661726 07 55 59.25 +16 17 31.8   C51 – WISE MPS 340796
2010 04 12.79403 07 56 05.66 +16 17 21.7   C51 – WISE MPS 340796
2010 04 12.926334 07 56 12.04 +16 17 12.1   C51 – WISE MPS 340796
2010 04 13.05864 07 56 18.43 +16 17 02.9   C51 – WISE MPS 340796
2010 04 13.190942 07 56 24.94 +16 16 52.0   C51 – WISE MPS 340796
2011 04 27.32057 14 34 03.50 -18 42 35.1 20.7 V G96 – Mt. Lemmon Survey MPS 380080
2011 04 27.32780 14 34 03.10 -18 42 32.9 20.3 V G96 – Mt. Lemmon Survey MPS 380080
2011 04 27.33503 14 34 02.74 -18 42 30.6 19.9 V G96 – Mt. Lemmon Survey MPS 380080
2011 04 27.34234 14 34 02.35 -18 42 28.4 20.0 V G96 – Mt. Lemmon Survey MPS 380080
2012 08 23.36675 20 36 38.949 -12 35 19.50 20.7 w F51 – Pan-STARRS 1, Haleakala MPS 430109
2012 08 23.38126 20 36 38.311 -12 35 22.16 20.8 w F51 – Pan-STARRS 1, Haleakala MPS 430109
2012 11 04.220643 20 46 23.197 -13 23 22.52 21.8 w F51 – Pan-STARRS 1, Haleakala MPS 441563
2012 11 04.226166 20 46 23.478 -13 23 21.63 21.8 w F51 – Pan-STARRS 1, Haleakala MPS 441563
2012 11 04.231708 20 46 23.756 -13 23 20.49 22.3 w F51 – Pan-STARRS 1, Haleakala MPS 441563
2012 11 04.237218 20 46 24.062 -13 23 20.27 22.2 w F51 – Pan-STARRS 1, Haleakala MPS 441563
2013 10 25.55062 03 58 01.508 +22 48 20.98 20.7 r F51 – Pan-STARRS 1, Haleakala MPS 485156
2013 10 25.56039 03 58 01.129 +22 48 19.08 20.3 r F51 – Pan-STARRS 1, Haleakala MPS 485156
2013 10 26.36641 03 57 30.98 +22 46 02.1 20.6 V G96 – Mt. Lemmon Survey MPS 485156
2013 10 26.37370 03 57 30.72 +22 46 01.1 20.6 V G96 – Mt. Lemmon Survey MPS 485156
2013 10 26.38098 03 57 30.40 +22 46 00.0 20.8 V G96 – Mt. Lemmon Survey MPS 485156
2013 10 26.38831 03 57 30.10 +22 45 58.6 20.6 V G96 – Mt. Lemmon Survey MPS 485156
2013 11 01.39599 03 53 16.76 +22 26 57.3 20.0 V G96 – Mt. Lemmon Survey MPS 487095
2013 11 01.40283 03 53 16.45 +22 26 56.2 19.9 V G96 – Mt. Lemmon Survey MPS 487095
2013 11 01.40964 03 53 16.11 +22 26 54.5 20.0 V G96 – Mt. Lemmon Survey MPS 487095
2013 11 01.41658 03 53 15.77 +22 26 53.1 20.0 V G96 – Mt. Lemmon Survey MPS 487095
2013 11 01.54835 03 53 09.685 +22 26 26.67 20.4 g F51 – Pan-STARRS 1, Haleakala MPS 487095
2013 11 01.56059 03 53 09.093 +22 26 23.93 20.4 g F51 – Pan-STARRS 1, Haleakala MPS 487095
2013 11 01.57267 03 53 08.522 +22 26 21.36 19.9 r F51 – Pan-STARRS 1, Haleakala MPS 487095
2013 11 01.58415 03 53 07.969 +22 26 18.80 20.1 r F51 – Pan-STARRS 1, Haleakala MPS 487095
2013 11 07.25569 03 48 30.27 +22 04 57.5 20.4 V 691 – Steward Observatory, Kitt Peak-Spacewatch MPS 487095
2013 11 07.27342 03 48 29.34 +22 04 53.1 20.6 V 691 – Steward Observatory, Kitt Peak-Spacewatch MPS 487095
2013 11 07.29116 03 48 28.39 +22 04 49.1 20.2 V 691 – Steward Observatory, Kitt Peak-Spacewatch MPS 487095
2013 11 11.24693 03 44 58.93 +21 48 15.5 20.4 V 691 – Steward Observatory, Kitt Peak-Spacewatch MPS 488353
2013 11 11.26468 03 44 57.94 +21 48 10.9 20.3 V 691 – Steward Observatory, Kitt Peak-Spacewatch MPS 488353
2013 11 11.28241 03 44 56.92 +21 48 06.3 20.2 V 691 – Steward Observatory, Kitt Peak-Spacewatch MPS 488353
2013 11 26.18485 03 31 13.26 +20 37 45.8 20.0 V 703 – Catalina Sky Survey MPS 489871
2013 11 26.19141 03 31 12.98 +20 37 44.6 19.5 V 703 – Catalina Sky Survey MPS 489871
2013 11 26.19796 03 31 12.44 +20 37 42.2 19.0 V 703 – Catalina Sky Survey MPS 489871
2013 11 26.20453 03 31 12.18 +20 37 41.4 19.0 V 703 – Catalina Sky Survey MPS 489871
2013 11 28.29694 03 29 20.81 +20 27 22.7 19.5 V G96 – Mt. Lemmon Survey MPS 489871
2013 11 28.30394 03 29 20.43 +20 27 20.7 19.7 V G96 – Mt. Lemmon Survey MPS 489871
2013 11 28.30981 03 29 20.11 +20 27 19.1 19.7 V G96 – Mt. Lemmon Survey MPS 489871
2013 11 28.31567 03 29 19.78 +20 27 17.4 19.6 V G96 – Mt. Lemmon Survey MPS 489871
2013 11 29.58750 03 28 13.88 +20 21 03.4 19.5 R D29 – Purple Mountain Observatory, XuYi Station MPS 490918
2013 11 29.60341 03 28 12.96 +20 20 59.1 20.4 R D29 – Purple Mountain Observatory, XuYi Station MPS 490918
2013 11 29.61932 03 28 12.10 +20 20 54.4 20.5 R D29 – Purple Mountain Observatory, XuYi Station MPS 490918
2013 12 23.21572 03 13 30.08 +18 42 06.7 20.0 V G96 – Mt. Lemmon Survey MPS 493330
2013 12 23.22196 03 13 29.99 +18 42 05.9 19.8 V G96 – Mt. Lemmon Survey MPS 493330
2013 12 23.22820 03 13 29.90 +18 42 05.1 19.8 V G96 – Mt. Lemmon Survey MPS 493330
2013 12 23.23445 03 13 29.73 +18 42 03.5 20.1 V G96 – Mt. Lemmon Survey MPS 493330
